SCP
0 0 0 0 0 0 0 0 0 0 0 0 0 0 0 0 0 0 0 0 0 0 0 0 0 0 0 0 0 0 0 0 0 0 0 0 0 0 0 0 0 0 0
0 0 0 0 0 0 0 0 0 0 0 0 0 0 0 0 0 0 0 0 0 0 0 0 0 0 0 0 0 0 0 0 0 0 0 0 0 0 0 0 0 0 0
0 0 0 0 0 0 0 0 0 0 0 0 0 0 0 0 0 0 0 0 0 0 0 0 0 0 0 0 0 0 0 0 0 0 0 0 0 0 0 0 0 0 0
0 0 0 0 0 0 0 0 0 0 0 0 0 0 0 0 0 0 0 0 0 0 0 0 0 0 0 0 0 0 0 0 0 0 0 0 0 0 0 0 0 0 0
0 0 0 0 0 0 0 0 0 0 0 0 0 0 0 0 0 0 0 0 0 0 0 0 0 0 0 0 0 0 0 0 0 0 0 0 0 0 0 0 0 0 0
0 0 0 0 0 0 0 0 0 0 0 0 0 0 0 0 0 0 0 0 0 0 0 0 0 0 0 0 0 0 0 0 0 0 0 0 0 0 0 0 0 0 0
0 0 0 0 0 0 0 0 0 0 0 0 0 0 0 0 0 0 0 0 0 0 0 0 0 0 0 0 0 0 0 0 0 0 0 0 0 0 0 0 0 0 0
0 0 0 0 0 0 0 0 0 0 0 0 0 0 0 0 0 0 0 0 0 0 0 0 0 0 0 0 0 0 0 0 0 0 0 0 0 0 0 0 0 0 0
0 0 0 0 0 0 0 0 0 0 0 0 0 0 0 0 0 0 0 0 0 0 0 0 0 0 0 0 0 0 0 0 0 0 0 0 0 0 0 0 0 0 0
0 0 0 0 0 0 0 0 0 0 0 0 0 0 0 0 0 0 0 0 0 0 0 0 0 0 0 0 0 0 0 0 0 0 0 0 0 0 0 0 0 0 0
0 0 0 0 0 0 0 0 0 0 0 0 0 0 0 0 0 0 0 0 0 0 0 0 0 0 0 0 0 0 0 0 0 0 0 0 0 0 0 0 0 0 0
0 0 0 0 0 0 0 0 0 0 0 0 0 0 0 0 0 0 0 0 0 0 0 0 0 0 0 0 0 0 0 0 0 0 0 0 0 0 0 0 0 0 0
0 0 0 0 0 0 0 0 0 0 0 0 0 0 0 0 0 0 0 0 0 0 0 0 0 0 0 0 0 0 0 0 0 0 0 0 0 0 0 0 0 0 0
0 0 0 0 0 0 0 0 0 0 0 0 0 0 0 0 0 0 0 0 0 0 0 0 0 0 0 0 0 0 0 0 0 0 0 0 0 0 0 0 0 0 0
0 0 0 0 0 0 0 0 0 0 0 0 0 0 0 0 0 0 0 0 0 0 0 0 0 0 0 0 0 0 0 0 0 0 0 0 0 0 0 0 0 0 0
0 0 0 0 0 0 0 0 0 0 0 0 0 0 0 0 0 0 0 0 0 0 0 0 0 0 0 0 0 0 0 0 0 0 0 0 0 0 0 0 0 0 0
0 0 0 0 0 0 0 0 0 0 0 0 0 0 0 0 0 0 0 0 0 0 0 0 0 0 0 0 0 0 0 0 0 0 0 0 0 0 0 0 0 0 0
0 0 0 0 0 0 0 0 0 0 0 0 0 0 0 0 0 0 0 0 0 0 0 0 0 0 0 0 0 0 0 0 0 0 0 0 0 0 0 0 0 0 0
0 0 0 0 0 0 0 0 0 0 0 0 0 0 0 0 0 0 0 0 0 0 0 0 0 0 0 0 0 0 0 0 0 0 0 0 0 0 0 0 0 0 0
0 0 0 0 0 0 0 0 0 0 0 0 0 0 0 0 0 0 0 0 0 0 0 0 0 0 0 0 0 0 0 0 0 0 0 0 0 0 0 0 0 0 0
0 0 0 0 0 0 0 0 0 0 0 0 0 0 0 0 0 0 0 0 0 0 0 0 0 0 0 0 0 0 0 0 0 0 0 0 0 0 0 0 0 0 0
0 0 0 0 0 0 0 0 0 0 0 0 0 0 0 0 0 0 0 0 0 0 0 0 0 0 0 0 0 0 0 0 0 0 0 0 0 0 0 0 0 0 0
0 0 0 0 0 0 0 0 0 0 0 0 0 0 0 0 0 0 0 0 0 0 0 0 0 0 0 0 0 0 0 0 0 0 0 0 0 0 0 0 0 0 0
0 0 0 0 0 0 0 0 0 0 0 0 0 0 0 0 0 0 0 0 0 0 0 0 0 0 0 0 0 0 0 0 0 0 0 0 0 0 0 0 0 0 0
0 0 0 0 0 0 0 0 0 0 0 0 1 1 1 0 0 0 0 0 0 0 0 0 0 0 0 0 0 0 0 0 0 0 0 0 0 0 0 0 0 0 0
0 0 0 0 0 0 0 0 0 0 0 0 1 1 1 0 0 0 0 0 0 0 0 0 0 0 0 0 0 0 0 0 0 0 0 0 0 0 0 0 0 0 0
Wind_Speed
9 9 11 10 10 10 10 11 11 12 12 13 13 14 14 14 14 14 15 16 16 17 17 17 17 18 18 18 18 18 19 19 18 18 19 19 19 19 18 15 14 15 19
12 11 11 10 10 10 10 10 10 11 12 13 13 14 14 14 14 14 15 15 16 16 17 17 17 17 17 17 17 18 18 18 17 14 14 17 18 18 18 17 16 14 18
13 12 11 10 11 10 10 10 10 11 12 13 13 14 14 14 14 14 14 15 15 16 16 16 16 16 16 16 16 17 16 16 14 10 10 12 15 18 18 18 17 18 17
13 11 11 11 11 11 10 10 10 11 12 13 13 14 14 13 13 14 14 14 15 15 15 15 15 15 15 15 15 15 15 14 11 7 9 11 13 17 18 18 18 18 18
12 11 11 10 11 11 10 10 10 11 12 13 13 13 13 13 13 13 13 14 14 15 15 15 15 14 14 15 15 14 14 13 8 10 11 11 12 16 18 18 18 17 17
12 11 12 10 11 11 10 10 11 11 12 12 13 13 13 13 12 12 13 13 14 14 14 14 14 14 14 14 14 13 12 9 7 10 10 10 11 15 16 16 16 16 16
12 11 12 10 10 11 10 10 10 11 12 12 13 13 12 12 12 12 12 12 13 13 13 13 13 13 13 13 13 12 11 7 9 9 9 10 11 14 15 15 15 14 15
12 11 11 10 9 9 9 9 9 11 12 12 12 12 12 11 11 11 11 11 12 12 12 12 12 12 12 12 11 11 9 5 8 9 9 10 11 13 13 13 13 13 13
11 10 10 10 10 8 8 8 8 9 10 11 11 11 10 9 10 9 9 10 11 11 11 11 11 11 11 11 10 10 9 5 6 6 7 7 10 12 12 12 11 11 11
10 10 10 9 9 9 9 8 8 9 9 10 10 10 9 9 9 8 7 9 10 10 10 10 10 10 10 10 9 9 6 1 6 6 5 7 9 10 10 10 10 10 10
9 9 9 9 9 8 8 8 8 8 9 9 9 9 7 7 8 6 8 8 9 9 9 9 9 9 8 8 8 5 1 3 4 4 5 8 9 9 9 8 8 8 8
12 11 9 10 9 9 7 7 6 6 7 6 7 8 5 5 5 5 8 8 8 8 8 8 8 7 3 4 5 2 2 3 2 3 5 7 7 7 7 7 6 6 6
13 11 10 10 9 9 6 6 4 4 5 6 7 7 5 5 5 4 4 5 6 6 5 6 5 2 2 2 2 2 2 1 1 2 4 5 6 6 6 6 5 5 5
13 13 12 11 9 9 7 6 6 5 4 5 6 7 6 4 4 4 3 4 4 3 3 3 2 3 2 2 2 2 2 2 1 1 3 3 4 6 6 6 5 5 5
15 14 13 12 11 10 8 6 6 6 6 6 6 7 7 5 5 5 4 4 4 3 4 3 3 4 3 3 3 3 3 3 3 3 2 3 4 6 7 7 7 7 7
15 15 13 13 12 11 9 8 7 6 6 6 6 7 8 6 5 5 5 5 4 4 4 4 4 4 3 3 4 4 4 4 5 5 4 5 6 7 9 10 10 10 10
15 14 14 13 13 12 11 10 7 7 7 6 6 8 9 7 7 6 5 5 5 5 5 4 4 4 4 4 5 5 5 5 6 7 6 6 6 8 10 12 13 13 13
14 15 14 11 13 13 12 10 8 7 8 7 6 7 9 9 8 6 6 6 5 5 4 4 4 4 5 5 5 5 5 5 8 8 8 8 7 7 10 13 15 15 16
15 15 15 15 15 14 13 10 9 8 8 7 7 7 9 10 10 8 6 6 6 5 5 5 5 5 5 6 5 5 5 6 7 8 10 10 10 9 9 10 13 14 17
14 15 15 15 15 14 11 9 7 8 8 7 7 8 10 9 11 9 7 8 7 6 6 7 7 6 5 5 4 5 6 7 7 9 11 10 10 12 11 11 10 11 17
14 16 16 16 15 13 10 10 9 9 8 8 8 10 11 11 11 10 8 8 9 8 9 9 7 7 6 3 3 5 7 10 11 10 10 11 12 13 12 13 11 10 10
13 15 16 16 16 15 12 10 8 8 8 9 8 10 12 12 12 10 11 9 9 9 10 10 9 5 5 6 6 4 5 6 10 11 11 11 13 11 12 14 13 13 11
9 11 11 14 14 15 14 9 6 6 5 6 8 8 10 11 11 11 12 10 10 9 9 11 11 10 8 8 8 6 6 7 5 4 9 10 11 10 11 11 14 15 14
5 6 9 10 11 12 13 11 12 10 10 10 8 7 8 10 11 11 11 11 11 10 10 11 11 10 9 8 7 9 9 4 4 5 4 6 10 12 13 11 12 14 14
0 2 5 7 8 9 11 11 11 10 9 6 4 4 5 6 8 9 10 10 10 9 11 10 10 11 10 10 7 6 8 8 7 7 10 8 7 8 10 12 11 11 13
5 4 4 5 4 5 7 8 9 9 8 6 4 4 4 3 4 7 8 8 9 8 10 10 10 12 11 12 9 7 7 7 7 9 11 10 10 9 9 9 11 12 12
Wind_Direction
152 146 136 136 130 120 113 109 109 109 106 101 98 94 91 89 87 85 84 82 80 79 77 76 74 72 71 70 70 69 68 67 68 71 74 74 74 73 69 64 69 71 70
143 143 134 135 130 123 115 111 111 112 110 105 101 98 95 93 91 89 88 86 84 83 81 80 79 77 76 74 73 72 70 69 68 68 76 78 74 74 72 68 68 73 73
141 141 139 130 130 125 119 114 113 115 112 109 104 102 99 97 95 92 91 89 88 87 85 83 83 81 80 78 77 76 74 71 67 59 76 81 79 76 76 74 74 75 75
141 142 139 131 133 129 125 120 116 116 114 112 108 106 103 100 98 94 93 92 91 89 89 87 86 84 83 81 80 80 77 72 61 59 74 77 79 77 76 74 73 72 73
143 142 134 137 136 133 128 122 117 117 116 115 111 109 105 102 99 96 94 93 93 91 91 90 89 88 87 85 84 83 79 75 67 75 76 76 77 77 75 74 72 71 70
145 143 139 142 138 135 132 126 122 120 119 118 115 111 109 105 101 99 97 96 95 94 93 92 91 90 89 89 87 84 79 71 83 78 77 77 79 81 80 78 76 74 73
148 146 144 142 138 137 136 132 127 124 121 119 117 114 112 109 105 103 101 99 98 96 95 93 92 92 91 90 87 83 75 59 79 80 79 78 80 82 82 81 79 77 76
150 148 146 137 136 138 137 133 130 127 124 121 120 119 117 114 111 108 105 103 102 100 97 96 95 95 94 92 88 81 69 59 87 82 79 81 84 85 85 83 82 82 81
155 154 153 153 148 139 133 131 128 125 123 122 121 118 113 110 109 103 102 106 105 103 101 100 99 99 98 95 90 84 70 36 85 84 84 83 88 89 88 87 87 87 87
164 164 161 160 158 155 150 134 127 124 121 117 114 112 109 108 104 98 108 104 107 106 105 103 101 99 98 97 94 90 81 74 83 87 86 92 93 91 90 91 91 92 93
176 174 171 168 166 162 157 147 143 130 124 126 123 121 134 138 132 128 106 100 106 107 107 106 103 100 102 100 93 94 122 86 86 77 87 98 100 97 96 96 97 98 98
184 184 181 179 174 170 162 162 162 158 156 160 152 153 152 141 132 127 105 95 99 106 110 107 108 119 137 126 120 163 123 108 100 89 99 114 112 110 109 109 109 109 111
188 187 191 188 183 180 173 172 168 167 167 168 167 165 158 151 147 152 144 135 135 138 133 128 142 146 137 130 151 162 144 162 131 115 117 131 134 133 133 132 133 135 135
192 192 193 192 191 190 187 183 179 177 176 177 176 177 172 169 171 169 171 165 166 167 158 163 160 156 156 159 175 182 192 214 210 180 129 149 173 168 165 165 167 168 170
199 197 196 195 195 194 194 193 191 190 188 184 182 187 190 184 182 180 179 182 186 181 184 184 183 178 181 184 196 207 214 223 226 228 184 186 218 206 196 194 194 195 196
203 201 197 198 199 197 199 200 199 197 193 193 194 196 198 198 191 189 188 192 195 195 196 199 199 199 203 205 209 217 226 228 230 230 230 208 223 232 222 216 213 211 210
206 204 201 201 201 202 204 206 206 203 200 201 200 201 202 206 203 199 198 200 199 193 193 200 202 212 216 216 220 220 227 232 236 234 233 233 224 226 234 230 226 222 220
209 208 205 201 204 206 206 207 208 208 206 208 205 203 205 208 208 205 207 209 198 188 193 200 203 210 218 222 226 222 227 232 236 238 237 236 236 233 230 233 234 231 228
214 211 208 205 207 208 208 209 211 210 211 211 208 207 207 207 207 208 213 210 193 194 200 203 210 216 224 226 233 237 238 240 240 240 242 241 240 240 239 233 236 239 235
219 217 214 210 210 208 208 210 212 213 214 212 210 210 208 207 207 208 213 209 195 200 205 208 213 216 229 229 232 246 247 246 245 243 243 242 240 239 240 241 238 238 238
219 217 216 214 211 206 205 207 210 215 213 213 214 212 210 210 208 208 211 208 202 209 213 210 210 216 223 204 224 254 249 239 242 242 240 241 240 238 238 239 238 239 238
217 216 217 216 212 209 210 211 214 218 217 216 213 215 214 213 210 209 213 212 209 215 218 212 205 209 212 192 208 233 266 254 232 232 234 236 242 240 239 238 239 239 239
220 218 216 217 215 213 213 213 207 211 214 211 217 218 216 214 214 213 215 216 214 214 220 217 210 212 221 211 215 215 233 259 278 229 232 234 237 238 240 238 239 241 242
228 222 220 217 216 214 211 212 212 215 221 225 224 221 215 212 216 218 220 220 220 218 223 221 215 218 224 223 216 230 241 270 272 282 244 239 241 240 240 239 240 240 239
63 190 198 201 207 210 210 213 217 224 231 235 229 224 222 217 220 224 225 226 226 225 228 226 219 219 221 228 218 214 229 240 241 255 273 267 246 239 242 242 243 242 239
73 92 120 142 158 183 197 207 215 222 226 226 224 227 231 233 234 235 236 236 235 233 231 229 226 223 225 230 231 221 215 220 222 231 256 268 269 262 244 237 240 242 241